Skip Page Navigation
NASA JPL Caltech
NASA Logo - Jet Propulsion Laboratory + View the NASA Portal
+ Center for Near-Earth Object Studies
JPL Home Earth Solar System Stars & Galaxies Technology
JPL Solar System Dynamics
BODIES ORBITS EPHEMERIDES TOOLS PHYSICAL DATA DISCOVERY FAQ SITE MAP
IMPORTANT: The SSD Announcement email list is now available. Major changes are coming in the near future, including possible hostname and/or URL changes. To be notified of such changes, subscribe to this email list.

Please visit this page for more details.


JPL Small-Body Database Browser
Search: [ help ]  
71235 (2000 AD3)
Classification: Main-belt Asteroid          SPK-ID: 2071235
Ephemeris | Orbit Diagram | Orbital Elements | Mission Design | Physical Parameters | Discovery Circumstances | Close-Approach Data ]

[ show orbit diagram ]
Orbital Elements at Epoch 2458600.5 (2019-Apr-27.0) TDB
Reference: JPL 21 (heliocentric ecliptic J2000)
 Element Value Uncertainty (1-sigma)   Units 
e .1237496742718846 6.1872e-08  
a 2.92085310842995 1.9954e-08 au
q 2.559398487665723 1.7975e-07 au
i 8.144629542142425 4.4501e-06 deg
node 95.88707259998455 4.6127e-05 deg
peri 93.39666813326915 4.9607e-05 deg
M 231.5084423244408 1.9253e-05 deg
tp 2459251.281344724836
(2021-Feb-05.78134472)
0.00010043 TDB
period 1823.320444853665
4.99
1.8684e-05
5.115e-08
d
yr
n .1974419806546362 2.0233e-09 deg/d
Q 3.282307729194179 2.2423e-08 au
  Orbit Determination Parameters
   # obs. used (total)      897  
   data-arc span      6978 days (19.10 yr)  
   first obs. used      1999-12-17  
   last obs. used      2019-01-24  
   planetary ephem.      DE431  
   SB-pert. ephem.      SB431-N16  
   condition code      0  
   norm. resid. RMS      .55433  
   source      ORB  
   producer      Otto Matic  
   solution date      2019-Jul-13 08:53:56  

Additional Information
 Earth MOID = 1.57649 au 
 Jupiter MOID = 1.74108 au 
 T_jup = 3.253 
[ show covariance matrix ]

Ephemeris | Orbit Diagram | Orbital Elements | Mission Design | Physical Parameters | Discovery Circumstances | Close-Approach Data ]

Physical Parameter Table
Parameter Symbol Value Units Sigma Reference Notes
absolute magnitude H 14.2   n/a MPO453118  
diameter diameter 6.806 km 0.173 urn:nasa:pds:neowise_diameters_albedos::2.0[mainbelt] (http://adsabs.harvard.edu/abs/2011ApJ...741...68M)  
geometric albedo albedo 0.043   0.022 urn:nasa:pds:neowise_diameters_albedos::2.0[mainbelt] (http://adsabs.harvard.edu/abs/2012ApJ...759L...8M)  

71235 (2000 AD3)          Discovered 2000-Jan-04 by Comba, P. G. at Prescott
Reference: 20031109/Numbers.arcLast Updated: 2004-04-19

[ show close-approach data ]
Alternate Designations
 2000 AD3 = 2001 FG98 
Ephemeris | Orbit Diagram | Orbital Elements | Mission Design | Physical Parameters | Discovery Circumstances | Close-Approach Data ]
ABOUT SSD CREDITS/AWARDS PRIVACY/COPYRIGHT GLOSSARY LINKS
FirstGov 2019-Oct-20 20:32 UT
(server date/time)  
NASA Home Page
Site Manager:   Ryan S. Park
Webmaster  Alan B. Chamberlin